Location: Peebles
(55.6412°N, 3.1714°W)
Time: 03:11:36
(UTC+01:00)

RS-15 - Pass Details

Date: 06 December 2023
Orbit: 1899 x 2146 km, 64.8° (Epoch: 13 October)

Event Time Altitude Azimuth Distance (km) Brightness Sun altitude
Exits shadow 04:13:43 50° 310° (NW) 2,418 8.1 -33.8°
Maximum altitude 04:17:36 87° 224° (SW) 1,975 7.8 -33.2°
Drops below altitude 10° 04:28:41 10° 138° (SE) 4,308 10.2 -31.7°
Sets 04:31:53 0° 138° (SE) 5,289 10.8 -31.2°
